QPF
0.00 0.00 0.00 0.00 0.01 0.01 0.01 0.02 0.01 0.01 0.01 0.01 0.01 0.01 0.01 0.01 0.01 0.03 0.04 0.04 0.05 0.06 0.06 0.06 0.05 0.05 0.05 0.05 0.04 0.03 0.03 0.02 0.03 0.03 0.05 0.05 0.05 0.06 0.08 0.12 0.14 0.07 0.03
0.00 0.00 0.00 0.00 0.00 0.01 0.01 0.01 0.01 0.01 0.01 0.01 0.01 0.01 0.01 0.01 0.01 0.02 0.04 0.04 0.04 0.04 0.04 0.05 0.05 0.05 0.04 0.02 0.02 0.02 0.03 0.03 0.04 0.04 0.04 0.04 0.05 0.06 0.12 0.16 0.15 0.05 0.04
0.00 0.00 0.00 0.00 0.00 0.01 0.01 0.01 0.01 0.01 0.01 0.01 0.01 0.01 0.01 0.01 0.01 0.01 0.02 0.03 0.03 0.03 0.03 0.03 0.04 0.04 0.03 0.01 0.01 0.03 0.04 0.04 0.06 0.08 0.11 0.04 0.03 0.07 0.14 0.13 0.09 0.05 0.03
0.00 0.00 0.00 0.00 0.01 0.01 0.01 0.01 0.01 0.01 0.01 0.01 0.01 0.01 0.01 0.01 0.01 0.01 0.02 0.02 0.02 0.02 0.02 0.02 0.02 0.02 0.02 0.02 0.02 0.02 0.03 0.04 0.09 0.20 0.16 0.06 0.03 0.06 0.11 0.09 0.07 0.05 0.05
0.00 0.00 0.00 0.00 0.01 0.01 0.01 0.01 0.01 0.01 0.01 0.01 0.01 0.01 0.01 0.02 0.02 0.02 0.02 0.02 0.02 0.01 0.01 0.02 0.01 0.01 0.02 0.02 0.01 0.02 0.02 0.05 0.14 0.21 0.12 0.12 0.05 0.05 0.07 0.06 0.05 0.06 0.06
0.01 0.01 0.00 0.01 0.02 0.01 0.01 0.01 0.02 0.01 0.01 0.01 0.01 0.01 0.01 0.01 0.02 0.02 0.02 0.01 0.01 0.01 0.01 0.01 0.01 0.01 0.01 0.02 0.01 0.01 0.02 0.08 0.15 0.11 0.09 0.10 0.04 0.05 0.06 0.06 0.07 0.07 0.06
0.02 0.02 0.01 0.01 0.02 0.02 0.02 0.02 0.01 0.01 0.01 0.01 0.01 0.01 0.01 0.01 0.02 0.02 0.01 0.01 0.01 0.01 0.01 0.01 0.01 0.01 0.02 0.02 0.01 0.01 0.01 0.06 0.10 0.07 0.11 0.10 0.04 0.03 0.04 0.06 0.07 0.06 0.05
0.01 0.01 0.01 0.01 0.01 0.02 0.02 0.01 0.01 0.01 0.01 0.01 0.01 0.01 0.02 0.02 0.01 0.01 0.01 0.01 0.02 0.02 0.01 0.01 0.02 0.01 0.02 0.02 0.01 0.00 0.01 0.05 0.05 0.05 0.06 0.05 0.02 0.03 0.02 0.03 0.04 0.04 0.04
0.01 0.02 0.02 0.01 0.01 0.01 0.02 0.01 0.01 0.01 0.01 0.01 0.01 0.02 0.02 0.02 0.01 0.01 0.01 0.01 0.02 0.01 0.01 0.01 0.02 0.02 0.02 0.01 0.01 0.01 0.01 0.03 0.03 0.04 0.02 0.02 0.01 0.02 0.02 0.02 0.03 0.03 0.03
0.05 0.05 0.03 0.02 0.02 0.02 0.02 0.01 0.01 0.01 0.01 0.01 0.01 0.01 0.02 0.02 0.02 0.01 0.01 0.01 0.01 0.01 0.01 0.01 0.01 0.01 0.01 0.01 0.01 0.01 0.01 0.02 0.02 0.03 0.02 0.01 0.01 0.01 0.01 0.01 0.02 0.03 0.03
0.11 0.10 0.07 0.04 0.04 0.04 0.03 0.01 0.02 0.01 0.01 0.01 0.01 0.01 0.03 0.05 0.03 0.03 0.03 0.02 0.02 0.02 0.01 0.01 0.01 0.01 0.00 0.00 0.00 0.01 0.02 0.05 0.06 0.03 0.02 0.01 0.01 0.01 0.01 0.01 0.01 0.02 0.02
0.13 0.11 0.10 0.07 0.05 0.06 0.05 0.05 0.05 0.03 0.02 0.04 0.04 0.04 0.09 0.10 0.09 0.06 0.03 0.02 0.02 0.01 0.01 0.01 0.01 0.01 0.02 0.01 0.00 0.01 0.01 0.03 0.04 0.05 0.02 0.01 0.01 0.01 0.01 0.01 0.01 0.01 0.01
0.10 0.11 0.10 0.09 0.06 0.06 0.07 0.06 0.06 0.08 0.07 0.07 0.08 0.07 0.09 0.07 0.05 0.04 0.03 0.02 0.03 0.03 0.03 0.02 0.02 0.03 0.04 0.03 0.02 0.01 0.01 0.02 0.04 0.06 0.04 0.02 0.01 0.01 0.01 0.01 0.01 0.01 0.01
0.12 0.11 0.11 0.09 0.06 0.06 0.07 0.07 0.06 0.08 0.09 0.10 0.08 0.06 0.05 0.07 0.07 0.06 0.07 0.06 0.05 0.05 0.07 0.04 0.05 0.04 0.04 0.05 0.05 0.04 0.02 0.01 0.04 0.05 0.05 0.02 0.01 0.01 0.00 0.01 0.00 0.01 0.01
0.13 0.14 0.13 0.08 0.06 0.07 0.12 0.10 0.06 0.08 0.13 0.12 0.10 0.08 0.06 0.05 0.06 0.07 0.07 0.06 0.05 0.03 0.04 0.05 0.04 0.02 0.02 0.04 0.08 0.05 0.03 0.02 0.04 0.04 0.03 0.01 0.01 0.01 0.00 0.01 0.01 0.01 0.01
0.12 0.14 0.14 0.11 0.08 0.08 0.12 0.13 0.11 0.08 0.11 0.11 0.10 0.07 0.05 0.06 0.07 0.06 0.05 0.06 0.06 0.04 0.04 0.04 0.04 0.03 0.03 0.03 0.03 0.01 0.01 0.03 0.04 0.03 0.05 0.03 0.02 0.02 0.01 0.01 0.01 0.01 0.01
0.17 0.18 0.16 0.12 0.11 0.10 0.14 0.14 0.13 0.12 0.05 0.06 0.08 0.08 0.05 0.06 0.07 0.06 0.06 0.05 0.05 0.05 0.04 0.03 0.04 0.03 0.03 0.03 0.02 0.02 0.01 0.04 0.07 0.04 0.08 0.09 0.05 0.03 0.02 0.02 0.02 0.02 0.01
0.18 0.19 0.17 0.12 0.12 0.10 0.11 0.13 0.14 0.16 0.09 0.06 0.07 0.08 0.07 0.06 0.05 0.05 0.06 0.06 0.04 0.04 0.04 0.05 0.04 0.04 0.03 0.03 0.03 0.03 0.02 0.03 0.03 0.03 0.06 0.08 0.09 0.08 0.07 0.04 0.04 0.03 0.02
0.16 0.19 0.18 0.15 0.15 0.12 0.10 0.10 0.13 0.16 0.14 0.09 0.08 0.08 0.08 0.06 0.04 0.04 0.05 0.06 0.04 0.04 0.04 0.04 0.05 0.04 0.04 0.03 0.01 0.02 0.02 0.03 0.03 0.04 0.07 0.07 0.05 0.06 0.07 0.05 0.04 0.03 0.03
0.13 0.18 0.17 0.15 0.15 0.14 0.12 0.12 0.14 0.13 0.13 0.11 0.10 0.09 0.07 0.06 0.05 0.05 0.05 0.06 0.05 0.05 0.06 0.05 0.07 0.05 0.04 0.02 0.01 0.03 0.02 0.01 0.02 0.03 0.04 0.04 0.05 0.04 0.05 0.06 0.06 0.03 0.02
0.10 0.16 0.16 0.13 0.13 0.13 0.12 0.11 0.11 0.12 0.12 0.12 0.10 0.07 0.06 0.06 0.06 0.06 0.07 0.07 0.07 0.08 0.07 0.05 0.05 0.04 0.04 0.03 0.03 0.04 0.03 0.02 0.02 0.03 0.03 0.02 0.03 0.03 0.05 0.06 0.05 0.05 0.04
0.08 0.13 0.15 0.13 0.10 0.10 0.10 0.12 0.12 0.12 0.10 0.09 0.08 0.07 0.05 0.05 0.06 0.05 0.08 0.07 0.07 0.09 0.07 0.06 0.06 0.06 0.04 0.03 0.03 0.05 0.07 0.07 0.04 0.03 0.03 0.02 0.02 0.04 0.03 0.03 0.03 0.03 0.04
0.06 0.09 0.11 0.12 0.09 0.11 0.13 0.13 0.13 0.15 0.11 0.09 0.08 0.08 0.07 0.05 0.05 0.06 0.08 0.08 0.08 0.06 0.07 0.07 0.07 0.06 0.05 0.04 0.02 0.04 0.06 0.07 0.06 0.06 0.04 0.03 0.03 0.03 0.03 0.02 0.02 0.02 0.02
0.06 0.09 0.11 0.11 0.11 0.13 0.14 0.14 0.12 0.08 0.07 0.06 0.06 0.07 0.08 0.07 0.06 0.05 0.05 0.08 0.07 0.05 0.05 0.04 0.04 0.05 0.05 0.06 0.04 0.03 0.02 0.03 0.04 0.06 0.05 0.03 0.02 0.02 0.02 0.02 0.02 0.03 0.03
0.06 0.08 0.10 0.12 0.11 0.12 0.13 0.14 0.13 0.10 0.11 0.09 0.09 0.10 0.10 0.08 0.06 0.05 0.05 0.07 0.06 0.04 0.03 0.03 0.03 0.03 0.03 0.04 0.03 0.02 0.02 0.01 0.01 0.03 0.04 0.03 0.02 0.02 0.01 0.01 0.02 0.02 0.02
0.05 0.06 0.08 0.11 0.11 0.11 0.10 0.11 0.12 0.12 0.13 0.12 0.10 0.08 0.08 0.08 0.07 0.06 0.05 0.06 0.05 0.04 0.04 0.03 0.02 0.02 0.03 0.03 0.03 0.02 0.01 0.01 0.01 0.01 0.03 0.03 0.04 0.03 0.01 0.01 0.01 0.01 0.01
MSLP
1007.90 1008.03 1008.34 1008.82 1009.42 1010.08 1010.69 1011.19 1011.55 1011.77 1011.89 1011.97 1012.06 1012.21 1012.41 1012.65 1012.90 1013.10 1013.24 1013.31 1013.32 1013.32 1013.33 1013.38 1013.48 1013.64 1013.82 1013.99 1014.14 1014.25 1014.33 1014.41 1014.50 1014.64 1014.84 1015.10 1015.39 1015.70 1015.99 1016.26 1016.48 1016.66 1016.81
1007.62 1007.92 1008.39 1009.01 1009.70 1010.38 1010.97 1011.41 1011.68 1011.82 1011.89 1011.95 1012.07 1012.27 1012.54 1012.86 1013.16 1013.39 1013.53 1013.59 1013.58 1013.54 1013.54 1013.59 1013.71 1013.89 1014.09 1014.28 1014.43 1014.53 1014.60 1014.66 1014.74 1014.87 1015.07 1015.32 1015.62 1015.93 1016.22 1016.48 1016.70 1016.89 1017.05
1007.29 1007.77 1008.41 1009.16 1009.94 1010.66 1011.24 1011.63 1011.84 1011.92 1011.95 1012.00 1012.14 1012.37 1012.69 1013.05 1013.38 1013.62 1013.76 1013.80 1013.77 1013.73 1013.72 1013.78 1013.91 1014.10 1014.31 1014.50 1014.65 1014.74 1014.80 1014.85 1014.93 1015.07 1015.28 1015.55 1015.85 1016.17 1016.46 1016.71 1016.93 1017.11 1017.28
1006.98 1007.61 1008.40 1009.28 1010.16 1010.92 1011.50 1011.87 1012.05 1012.10 1012.10 1012.15 1012.29 1012.55 1012.89 1013.26 1013.59 1013.84 1013.96 1013.99 1013.95 1013.91 1013.91 1013.98 1014.12 1014.32 1014.52 1014.70 1014.82 1014.90 1014.95 1015.00 1015.09 1015.26 1015.50 1015.79 1016.12 1016.44 1016.73 1016.97 1017.17 1017.35 1017.52
1006.73 1007.49 1008.41 1009.40 1010.35 1011.16 1011.77 1012.14 1012.31 1012.35 1012.35 1012.41 1012.56 1012.82 1013.16 1013.52 1013.83 1014.05 1014.16 1014.18 1014.15 1014.12 1014.14 1014.23 1014.38 1014.56 1014.74 1014.89 1014.98 1015.04 1015.08 1015.14 1015.26 1015.47 1015.75 1016.09 1016.45 1016.78 1017.06 1017.28 1017.46 1017.62 1017.78
1006.61 1007.46 1008.46 1009.52 1010.53 1011.38 1012.01 1012.40 1012.59 1012.65 1012.67 1012.73 1012.90 1013.16 1013.48 1013.81 1014.09 1014.29 1014.39 1014.41 1014.39 1014.39 1014.43 1014.53 1014.68 1014.85 1015.00 1015.11 1015.16 1015.18 1015.21 1015.28 1015.44 1015.70 1016.04 1016.43 1016.82 1017.16 1017.44 1017.64 1017.78 1017.91 1018.06
1006.64 1007.52 1008.56 1009.65 1010.68 1011.55 1012.20 1012.61 1012.83 1012.92 1012.98 1013.08 1013.25 1013.51 1013.81 1014.11 1014.37 1014.54 1014.63 1014.66 1014.66 1014.69 1014.77 1014.89 1015.04 1015.18 1015.29 1015.34 1015.34 1015.33 1015.34 1015.43 1015.62 1015.94 1016.34 1016.79 1017.22 1017.58 1017.84 1018.01 1018.12 1018.21 1018.32
1006.79 1007.67 1008.70 1009.78 1010.79 1011.65 1012.30 1012.73 1012.98 1013.12 1013.22 1013.36 1013.56 1013.82 1014.11 1014.39 1014.61 1014.77 1014.86 1014.90 1014.94 1015.00 1015.11 1015.25 1015.40 1015.52 1015.58 1015.58 1015.53 1015.47 1015.47 1015.57 1015.80 1016.17 1016.64 1017.13 1017.60 1017.97 1018.23 1018.38 1018.44 1018.48 1018.56
1007.02 1007.86 1008.84 1009.86 1010.83 1011.65 1012.28 1012.72 1012.99 1013.18 1013.34 1013.52 1013.74 1014.02 1014.31 1014.58 1014.79 1014.94 1015.03 1015.10 1015.17 1015.27 1015.41 1015.56 1015.71 1015.80 1015.83 1015.78 1015.68 1015.60 1015.59 1015.70 1015.96 1016.37 1016.89 1017.43 1017.93 1018.32 1018.57 1018.70 1018.72 1018.72 1018.76
1007.24 1008.04 1008.95 1009.89 1010.78 1011.53 1012.12 1012.55 1012.85 1013.07 1013.28 1013.51 1013.78 1014.09 1014.39 1014.66 1014.87 1015.03 1015.13 1015.22 1015.32 1015.45 1015.61 1015.78 1015.92 1016.00 1015.99 1015.91 1015.79 1015.69 1015.67 1015.79 1016.08 1016.53 1017.08 1017.66 1018.18 1018.59 1018.84 1018.96 1018.97 1018.94 1018.93
1007.38 1008.13 1008.97 1009.83 1010.62 1011.30 1011.84 1012.24 1012.55 1012.81 1013.07 1013.35 1013.67 1014.01 1014.34 1014.62 1014.85 1015.01 1015.13 1015.24 1015.36 1015.51 1015.69 1015.87 1016.01 1016.08 1016.07 1015.97 1015.85 1015.75 1015.74 1015.88 1016.18 1016.64 1017.21 1017.80 1018.35 1018.77 1019.04 1019.16 1019.16 1019.12 1019.10
1007.39 1008.11 1008.89 1009.66 1010.37 1010.97 1011.46 1011.84 1012.15 1012.43 1012.73 1013.06 1013.43 1013.81 1014.17 1014.48 1014.73 1014.91 1015.05 1015.18 1015.32 1015.48 1015.66 1015.84 1015.98 1016.06 1016.05 1015.98 1015.87 1015.79 1015.80 1015.95 1016.27 1016.73 1017.30 1017.89 1018.43 1018.87 1019.15 1019.29 1019.32 1019.29 1019.27
1007.27 1007.96 1008.70 1009.41 1010.05 1010.59 1011.03 1011.39 1011.70 1012.01 1012.34 1012.71 1013.12 1013.54 1013.93 1014.28 1014.56 1014.77 1014.92 1015.06 1015.21 1015.37 1015.55 1015.73 1015.88 1015.97 1015.99 1015.95 1015.89 1015.85 1015.89 1016.06 1016.37 1016.82 1017.36 1017.93 1018.46 1018.89 1019.19 1019.37 1019.43 1019.44 1019.45
1007.03 1007.72 1008.42 1009.09 1009.68 1010.19 1010.60 1010.95 1011.27 1011.59 1011.94 1012.35 1012.79 1013.24 1013.67 1014.05 1014.35 1014.59 1014.78 1014.93 1015.08 1015.24 1015.41 1015.59 1015.74 1015.86 1015.92 1015.93 1015.92 1015.94 1016.02 1016.20 1016.50 1016.92 1017.41 1017.93 1018.43 1018.84 1019.16 1019.37 1019.48 1019.54 1019.59
1006.74 1007.42 1008.10 1008.75 1009.32 1009.81 1010.22 1010.57 1010.89 1011.23 1011.60 1012.02 1012.47 1012.95 1013.40 1013.81 1014.15 1014.42 1014.64 1014.81 1014.97 1015.13 1015.30 1015.48 1015.64 1015.78 1015.89 1015.96 1016.02 1016.09 1016.21 1016.40 1016.67 1017.03 1017.46 1017.91 1018.34 1018.73 1019.04 1019.28 1019.45 1019.57 1019.67
1006.46 1007.12 1007.78 1008.41 1008.98 1009.47 1009.90 1010.26 1010.61 1010.96 1011.34 1011.76 1012.21 1012.68 1013.14 1013.58 1013.95 1014.26 1014.52 1014.73 1014.91 1015.09 1015.26 1015.44 1015.61 1015.78 1015.92 1016.04 1016.16 1016.28 1016.43 1016.62 1016.86 1017.16 1017.50 1017.85 1018.21 1018.53 1018.83 1019.08 1019.29 1019.47 1019.64
1006.24 1006.86 1007.49 1008.10 1008.67 1009.19 1009.64 1010.04 1010.41 1010.78 1011.15 1011.55 1011.98 1012.44 1012.90 1013.34 1013.74 1014.10 1014.41 1014.66 1014.89 1015.09 1015.28 1015.47 1015.66 1015.84 1016.02 1016.19 1016.35 1016.51 1016.68 1016.86 1017.05 1017.27 1017.51 1017.76 1018.01 1018.27 1018.52 1018.76 1019.00 1019.23 1019.45
1006.10 1006.66 1007.24 1007.83 1008.41 1008.94 1009.43 1009.88 1010.28 1010.66 1011.03 1011.40 1011.79 1012.21 1012.64 1013.08 1013.51 1013.91 1014.28 1014.60 1014.89 1015.14 1015.36 1015.57 1015.77 1015.97 1016.17 1016.36 1016.55 1016.74 1016.91 1017.07 1017.22 1017.36 1017.49 1017.63 1017.78 1017.95 1018.14 1018.35 1018.59 1018.85 1019.11
1006.04 1006.52 1007.03 1007.59 1008.16 1008.72 1009.26 1009.76 1010.20 1010.59 1010.94 1011.28 1011.62 1011.99 1012.38 1012.80 1013.25 1013.69 1014.12 1014.52 1014.88 1015.18 1015.45 1015.69 1015.91 1016.12 1016.33 1016.54 1016.74 1016.94 1017.11 1017.25 1017.35 1017.42 1017.46 1017.49 1017.54 1017.61 1017.73 1017.90 1018.12 1018.38 1018.66
1006.01 1006.39 1006.84 1007.35 1007.91 1008.50 1009.09 1009.64 1010.12 1010.53 1010.88 1011.18 1011.47 1011.78 1012.12 1012.51 1012.96 1013.43 1013.92 1014.39 1014.82 1015.20 1015.52 1015.80 1016.04 1016.26 1016.48 1016.69 1016.90 1017.09 1017.26 1017.38 1017.45 1017.46 1017.42 1017.37 1017.32 1017.30 1017.34 1017.46 1017.64 1017.88 1018.16
1005.96 1006.26 1006.63 1007.10 1007.65 1008.26 1008.89 1009.49 1010.03 1010.48 1010.83 1011.11 1011.35 1011.59 1011.87 1012.22 1012.65 1013.14 1013.67 1014.20 1014.71 1015.15 1015.53 1015.85 1016.13 1016.36 1016.58 1016.80 1017.01 1017.20 1017.36 1017.47 1017.52 1017.50 1017.41 1017.29 1017.17 1017.08 1017.04 1017.09 1017.22 1017.43 1017.70
1005.86 1006.09 1006.40 1006.81 1007.35 1007.97 1008.64 1009.30 1009.90 1010.39 1010.76 1011.03 1011.24 1011.44 1011.67 1011.97 1012.37 1012.85 1013.40 1013.97 1014.53 1015.04 1015.47 1015.84 1016.14 1016.40 1016.63 1016.85 1017.06 1017.26 1017.43 1017.54 1017.59 1017.55 1017.45 1017.29 1017.11 1016.96 1016.86 1016.84 1016.91 1017.09 1017.33
1005.68 1005.86 1006.11 1006.48 1006.99 1007.62 1008.32 1009.03 1009.69 1010.24 1010.66 1010.95 1011.15 1011.32 1011.51 1011.77 1012.13 1012.59 1013.14 1013.72 1014.31 1014.85 1015.34 1015.74 1016.07 1016.35 1016.60 1016.84 1017.07 1017.28 1017.47 1017.60 1017.66 1017.63 1017.52 1017.35 1017.15 1016.95 1016.79 1016.72 1016.74 1016.85 1017.06
1005.42 1005.57 1005.78 1006.10 1006.57 1007.18 1007.90 1008.65 1009.36 1009.98 1010.46 1010.81 1011.04 1011.22 1011.39 1011.62 1011.94 1012.37 1012.89 1013.46 1014.05 1014.62 1015.12 1015.56 1015.92 1016.23 1016.51 1016.77 1017.02 1017.26 1017.47 1017.63 1017.72 1017.72 1017.63 1017.46 1017.24 1017.02 1016.83 1016.70 1016.66 1016.72 1016.88
1005.11 1005.25 1005.41 1005.67 1006.09 1006.66 1007.36 1008.13 1008.89 1009.58 1010.14 1010.57 1010.86 1011.08 1011.28 1011.50 1011.79 1012.18 1012.66 1013.21 1013.78 1014.34 1014.86 1015.32 1015.71 1016.05 1016.36 1016.65 1016.93 1017.20 1017.44 1017.63 1017.76 1017.79 1017.72 1017.57 1017.36 1017.12 1016.89 1016.72 1016.62 1016.63 1016.74
1004.81 1004.93 1005.04 1005.23 1005.56 1006.05 1006.71 1007.46 1008.25 1009.00 1009.65 1010.17 1010.57 1010.87 1011.11 1011.36 1011.65 1012.02 1012.47 1012.97 1013.51 1014.05 1014.57 1015.03 1015.45 1015.82 1016.16 1016.48 1016.79 1017.09 1017.36 1017.59 1017.74 1017.81 1017.77 1017.64 1017.44 1017.20 1016.95 1016.73 1016.59 1016.54 1016.60
Thickness
5817 5810 5803 5800 5797 5794 5791 5789 5786 5784 5782 5781 5779 5778 5777 5776 5775 5774 5773 5772 5771 5770 5769 5768 5767 5766 5765 5764 5762 5761 5760 5759 5758 5756 5754 5753 5751 5750 5749 5747 5746 5744 5742
5820 5810 5803 5799 5796 5792 5790 5787 5785 5783 5781 5779 5778 5777 5776 5774 5773 5772 5771 5770 5769 5768 5767 5766 5765 5764 5763 5762 5760 5759 5758 5757 5756 5754 5753 5750 5749 5748 5747 5746 5744 5742 5740
5819 5809 5802 5798 5794 5791 5788 5786 5783 5781 5779 5777 5776 5775 5774 5773 5772 5770 5769 5768 5767 5766 5765 5764 5763 5762 5761 5760 5759 5758 5757 5756 5754 5753 5752 5750 5747 5746 5745 5744 5742 5740 5739
5817 5809 5802 5796 5793 5789 5787 5784 5782 5780 5778 5776 5774 5773 5772 5771 5770 5769 5768 5767 5766 5765 5764 5763 5761 5760 5759 5758 5757 5757 5756 5755 5753 5753 5752 5750 5747 5744 5743 5742 5740 5738 5737
5816 5809 5800 5795 5791 5788 5785 5782 5780 5778 5776 5774 5773 5771 5770 5769 5768 5767 5766 5765 5764 5763 5762 5761 5759 5758 5757 5757 5756 5756 5755 5754 5753 5752 5751 5748 5745 5742 5741 5740 5738 5737 5736
5815 5806 5797 5793 5789 5786 5783 5780 5778 5776 5774 5772 5771 5769 5768 5767 5766 5765 5764 5763 5762 5761 5760 5759 5757 5756 5756 5755 5755 5755 5754 5754 5753 5751 5749 5746 5743 5741 5740 5738 5737 5736 5734
5813 5803 5795 5790 5787 5784 5781 5778 5776 5774 5772 5771 5769 5767 5766 5765 5764 5763 5762 5760 5760 5758 5757 5757 5755 5754 5754 5754 5754 5754 5754 5754 5754 5751 5747 5744 5741 5739 5738 5737 5735 5734 5733
5812 5801 5792 5787 5784 5781 5779 5776 5774 5772 5771 5769 5767 5766 5764 5763 5762 5760 5759 5758 5758 5756 5756 5755 5754 5753 5752 5753 5753 5754 5754 5754 5754 5751 5746 5742 5740 5738 5737 5735 5734 5732 5731
5810 5799 5791 5785 5782 5779 5776 5774 5772 5770 5769 5767 5766 5764 5763 5761 5760 5758 5757 5756 5756 5755 5754 5753 5752 5751 5751 5752 5753 5753 5754 5754 5753 5750 5745 5741 5738 5737 5735 5734 5732 5731 5730
5806 5797 5791 5786 5781 5777 5774 5772 5770 5768 5767 5765 5764 5763 5761 5760 5759 5757 5755 5754 5754 5753 5752 5752 5751 5750 5750 5751 5752 5753 5753 5753 5753 5749 5744 5739 5737 5735 5734 5733 5731 5730 5728
5801 5796 5792 5786 5781 5778 5774 5771 5769 5767 5765 5764 5763 5762 5761 5760 5758 5756 5754 5753 5752 5752 5751 5751 5750 5749 5749 5750 5751 5752 5752 5752 5751 5747 5743 5739 5736 5734 5733 5731 5730 5729 5727
5794 5793 5791 5786 5782 5780 5777 5770 5768 5767 5764 5764 5763 5761 5761 5761 5759 5757 5753 5752 5751 5751 5750 5750 5749 5748 5748 5750 5751 5751 5753 5752 5750 5745 5740 5737 5735 5733 5732 5730 5729 5728 5726
5794 5791 5789 5785 5783 5781 5777 5771 5770 5769 5765 5764 5763 5762 5761 5760 5758 5755 5753 5751 5750 5750 5750 5749 5748 5749 5749 5750 5751 5752 5753 5754 5750 5744 5738 5736 5734 5732 5731 5729 5728 5727 5726
5792 5789 5787 5784 5781 5779 5777 5774 5773 5770 5766 5765 5763 5762 5761 5760 5758 5756 5754 5752 5751 5751 5750 5750 5749 5750 5750 5751 5751 5752 5753 5751 5747 5741 5737 5735 5733 5731 5730 5728 5727 5726 5725
5789 5786 5785 5783 5779 5777 5775 5773 5772 5770 5768 5766 5763 5761 5760 5759 5757 5756 5754 5753 5752 5751 5750 5749 5749 5749 5749 5749 5749 5750 5750 5750 5746 5741 5736 5734 5732 5731 5729 5728 5726 5725 5724
5788 5784 5782 5779 5776 5774 5771 5770 5770 5769 5767 5766 5763 5761 5760 5759 5756 5754 5753 5752 5751 5750 5749 5748 5747 5747 5747 5747 5748 5748 5748 5747 5745 5741 5736 5733 5732 5730 5729 5727 5726 5724 5723
5787 5783 5779 5776 5773 5770 5767 5767 5767 5766 5764 5764 5761 5759 5758 5757 5755 5753 5752 5750 5750 5749 5748 5746 5746 5745 5745 5746 5746 5746 5746 5745 5743 5740 5737 5734 5731 5729 5728 5727 5725 5724 5723
5785 5780 5776 5774 5769 5766 5764 5763 5764 5764 5763 5762 5759 5757 5755 5755 5753 5752 5751 5749 5748 5747 5746 5745 5745 5744 5743 5744 5743 5744 5744 5743 5742 5740 5737 5735 5732 5730 5728 5727 5725 5724 5723
5783 5777 5772 5770 5766 5763 5761 5760 5761 5760 5760 5759 5757 5755 5753 5752 5751 5751 5750 5749 5748 5747 5746 5745 5743 5742 5740 5741 5742 5742 5743 5742 5741 5740 5738 5736 5734 5732 5730 5727 5725 5724 5722
5781 5775 5770 5767 5763 5760 5758 5757 5756 5756 5756 5755 5755 5753 5751 5750 5750 5749 5749 5748 5747 5746 5744 5743 5742 5741 5740 5740 5742 5741 5741 5742 5741 5740 5739 5737 5735 5733 5731 5728 5725 5723 5722
5778 5772 5767 5763 5761 5757 5754 5752 5750 5749 5750 5751 5752 5751 5750 5749 5749 5748 5748 5747 5746 5745 5743 5742 5741 5739 5739 5740 5737 5734 5737 5741 5741 5740 5739 5738 5736 5734 5732 5729 5727 5725 5722
5775 5770 5765 5762 5759 5757 5754 5752 5751 5750 5749 5749 5749 5749 5748 5748 5748 5747 5746 5745 5745 5743 5742 5742 5741 5738 5739 5740 5735 5730 5726 5729 5735 5740 5739 5737 5736 5734 5732 5730 5728 5726 5724
5773 5769 5766 5761 5759 5756 5754 5751 5749 5747 5746 5746 5745 5745 5747 5747 5746 5747 5746 5745 5744 5743 5741 5741 5741 5738 5736 5739 5739 5733 5725 5721 5726 5733 5736 5737 5735 5734 5733 5732 5730 5727 5725
5775 5771 5767 5762 5759 5756 5753 5750 5747 5744 5742 5745 5745 5745 5745 5746 5745 5745 5745 5744 5744 5744 5742 5741 5742 5741 5738 5735 5738 5738 5736 5733 5726 5723 5730 5734 5735 5733 5733 5732 5730 5728 5725
5777 5772 5767 5762 5758 5756 5753 5751 5748 5746 5746 5746 5746 5744 5743 5744 5745 5745 5744 5744 5743 5743 5743 5742 5741 5740 5740 5738 5738 5737 5737 5736 5735 5727 5722 5727 5731 5733 5733 5733 5731 5729 5726
5777 5772 5767 5761 5757 5755 5752 5751 5748 5746 5745 5744 5743 5741 5741 5742 5744 5744 5744 5743 5743 5743 5742 5742 5741 5740 5740 5740 5739 5739 5737 5734 5732 5731 5726 5725 5726 5730 5734 5733 5732 5730 5727